Time,TemperatureF,DewpointF,PressureIn,WindDirection,WindDirectionDegrees,WindSpeedMPH,WindSpeedGustMPH,Humidity,HourlyPrecipIn,Conditions,Clouds,dailyrainin,SoftwareType,DateUTC
2013-03-05 00:02:00,51.0,48.0,26.31,NE,35,4.0,6.0,89,-99.99,,,-99.99,,2013-03-05 08:02:00,
2013-03-05 00:11:00,51.0,48.0,26.31,NE,42,3.0,7.0,89,-99.99,,,-99.99,,2013-03-05 08:11:00,
2013-03-05 00:21:00,51.0,48.0,26.31,NE,40,3.0,5.0,89,-99.99,,,-99.99,,2013-03-05 08:21:00,
2013-03-05 00:31:00,51.0,48.0,26.31,NE,40,3.0,5.0,89,-99.99,,,-99.99,,2013-03-05 08:31:00,
2013-03-05 00:41:00,52.0,49.0,26.31,NE,54,2.0,3.0,88,-99.99,,,-99.99,,2013-03-05 08:41:00,
2013-03-05 00:52:00,52.0,49.0,26.31,NE,41,2.0,3.0,88,-99.99,,,-99.99,,2013-03-05 08:52:00,
2013-03-05 01:01:00,52.0,49.0,26.31,East,95,1.0,1.0,88,-99.99,,,-99.99,,2013-03-05 09:01:00,
2013-03-05 01:11:00,52.0,49.0,26.31,NE,47,3.0,6.0,88,-99.99,,,-99.99,,2013-03-05 09:11:00,
2013-03-05 01:21:00,52.0,49.0,26.31,NE,47,3.0,6.0,88,-99.99,,,-99.99,,2013-03-05 09:21:00,
2013-03-05 01:31:00,52.0,49.0,26.31,NE,50,3.0,5.0,88,-99.99,,,-99.99,,2013-03-05 09:31:00,
2013-03-05 01:42:00,52.0,49.0,26.31,NE,37,3.0,4.0,88,-99.99,,,-99.99,,2013-03-05 09:42:00,
2013-03-05 01:51:00,52.0,49.0,26.31,NE,38,3.0,5.0,88,-99.99,,,-99.99,,2013-03-05 09:51:00,
2013-03-05 02:01:00,52.0,49.0,26.31,NE,38,3.0,5.0,88,-99.99,,,-99.99,,2013-03-05 10:01:00,
2013-03-05 02:11:00,52.0,49.0,26.31,NE,46,3.0,4.0,88,-99.99,,,-99.99,,2013-03-05 10:11:00,
2013-03-05 02:21:00,52.0,49.0,26.31,North,355,1.0,2.0,89,-99.99,,,-99.99,,2013-03-05 10:21:00,
2013-03-05 02:32:00,53.0,50.0,26.31,South,171,1.0,3.0,89,-99.99,,,-99.99,,2013-03-05 10:32:00,
2013-03-05 02:41:00,53.0,50.0,26.34,SSE,155,1.0,4.0,89,-99.99,,,-99.99,,2013-03-05 10:41:00,
2013-03-05 02:51:00,53.0,50.0,26.34,ESE,120,2.0,3.0,89,-99.99,,,-99.99,,2013-03-05 10:51:00,
2013-03-05 03:01:00,53.0,50.0,26.34,ESE,120,2.0,3.0,89,-99.99,,,-99.99,,2013-03-05 11:01:00,
2013-03-05 03:11:00,53.0,50.0,26.34,SSE,147,2.0,3.0,89,-99.99,,,-99.99,,2013-03-05 11:11:00,
2013-03-05 03:21:00,53.0,50.0,26.34,South,174,3.0,6.0,89,-99.99,,,-99.99,,2013-03-05 11:21:00,
2013-03-05 03:32:00,53.0,50.0,26.34,South,177,1.0,2.0,89,-99.99,,,-99.99,,2013-03-05 11:32:00,
2013-03-05 03:41:00,53.0,50.0,26.34,East,94,1.0,3.0,89,-99.99,,,-99.99,,2013-03-05 11:41:00,
2013-03-05 03:52:00,53.0,50.0,26.31,NE,47,2.0,3.0,88,-99.99,,,-99.99,,2013-03-05 11:52:00,
2013-03-05 04:02:00,52.0,48.0,26.31,NNE,24,4.0,6.0,87,-99.99,,,-99.99,,2013-03-05 12:02:00,
2013-03-05 04:11:00,52.0,48.0,26.31,NE,40,4.0,6.0,87,-99.99,,,-99.99,,2013-03-05 12:11:00,
2013-03-05 04:22:00,52.0,48.0,26.31,NE,53,3.0,4.0,87,-99.99,,,-99.99,,2013-03-05 12:22:00,
2013-03-05 04:32:00,52.0,48.0,26.31,NE,46,3.0,5.0,87,-99.99,,,-99.99,,2013-03-05 12:32:00,
2013-03-05 04:42:00,52.0,48.0,26.31,NE,37,4.0,7.0,87,-99.99,,,-99.99,,2013-03-05 12:42:00,
2013-03-05 04:52:00,52.0,49.0,26.31,NNE,32,4.0,7.0,88,-99.99,,,-99.99,,2013-03-05 12:52:00,
2013-03-05 05:01:00,52.0,49.0,26.31,NE,41,4.0,5.0,88,-99.99,,,-99.99,,2013-03-05 13:01:00,
2013-03-05 05:11:00,52.0,49.0,26.31,NE,52,3.0,5.0,89,-99.99,,,-99.99,,2013-03-05 13:11:00,
2013-03-05 05:21:00,52.0,49.0,26.31,NE,55,3.0,4.0,89,-99.99,,,-99.99,,2013-03-05 13:21:00,
2013-03-05 05:31:00,52.0,49.0,26.31,NE,55,3.0,4.0,89,-99.99,,,-99.99,,2013-03-05 13:31:00,
2013-03-05 05:42:00,52.0,49.0,26.34,East,81,2.0,3.0,90,-99.99,,,-99.99,,2013-03-05 13:42:00,
2013-03-05 05:51:00,52.0,49.0,26.34,ESE,111,2.0,3.0,90,-99.99,,,-99.99,,2013-03-05 13:51:00,
2013-03-05 06:02:00,52.0,49.0,26.34,SE,124,2.0,4.0,90,-99.99,,,-99.99,,2013-03-05 14:02:00,
2013-03-05 06:11:00,52.0,49.0,26.31,East,91,3.0,6.0,89,-99.99,,,-99.99,,2013-03-05 14:11:00,
2013-03-05 06:21:00,52.0,49.0,26.31,ENE,69,3.0,4.0,89,-99.99,,,-99.99,,2013-03-05 14:21:00,
2013-03-05 06:31:00,51.0,48.0,26.31,NE,54,2.0,4.0,89,-99.99,,,-99.99,,2013-03-05 14:31:00,
2013-03-05 06:41:00,51.0,48.0,26.31,NNE,29,3.0,5.0,88,-99.99,,,-99.99,,2013-03-05 14:41:00,
2013-03-05 06:52:00,51.0,47.0,26.31,NNE,32,4.0,5.0,87,-99.99,,,-99.99,,2013-03-05 14:52:00,
2013-03-05 07:01:00,51.0,47.0,26.28,ENE,61,4.0,6.0,87,-99.99,,,-99.99,,2013-03-05 15:01:00,
2013-03-05 07:11:00,51.0,48.0,26.31,NE,56,4.0,6.0,88,-99.99,,,-99.99,,2013-03-05 15:11:00,
2013-03-05 07:21:00,52.0,49.0,26.31,NE,50,3.0,4.0,88,-99.99,,,-99.99,,2013-03-05 15:21:00,
2013-03-05 07:31:00,52.0,49.0,26.31,NE,47,3.0,5.0,88,-99.99,,,-99.99,,2013-03-05 15:31:00,
2013-03-05 07:42:00,52.0,49.0,26.31,NE,54,4.0,5.0,88,-99.99,,,-99.99,,2013-03-05 15:42:00,
2013-03-05 07:51:00,52.0,49.0,26.31,NE,45,4.0,6.0,88,-99.99,,,-99.99,,2013-03-05 15:51:00,
2013-03-05 08:01:00,52.0,49.0,26.31,NE,44,4.0,6.0,88,-99.99,,,-99.99,,2013-03-05 16:01:00,
2013-03-05 08:11:00,52.0,49.0,26.31,NE,47,4.0,5.0,89,-99.99,,,-99.99,,2013-03-05 16:11:00,
2013-03-05 08:21:00,52.0,49.0,26.31,NE,52,4.0,6.0,88,-99.99,,,-99.99,,2013-03-05 16:21:00,
2013-03-05 08:31:00,53.0,50.0,26.31,NE,39,3.0,5.0,88,-99.99,,,-99.99,,2013-03-05 16:31:00,
2013-03-05 08:41:00,53.0,50.0,26.31,NE,39,3.0,5.0,88,-99.99,,,-99.99,,2013-03-05 16:41:00,
2013-03-05 08:51:00,53.0,49.0,26.31,NNE,31,3.0,4.0,87,-99.99,,,-99.99,,2013-03-05 16:51:00,
2013-03-05 09:01:00,53.0,49.0,26.31,NE,55,3.0,4.0,87,-99.99,,,-99.99,,2013-03-05 17:01:00,
2013-03-05 09:11:00,53.0,49.0,26.31,ESE,110,1.0,5.0,86,-99.99,,,-99.99,,2013-03-05 17:11:00,
2013-03-05 09:21:00,54.0,50.0,26.31,NE,51,1.0,2.0,86,-99.99,,,-99.99,,2013-03-05 17:21:00,
2013-03-05 09:32:00,54.0,50.0,26.31,SW,220,3.0,5.0,85,-99.99,,,-99.99,,2013-03-05 17:32:00,
2013-03-05 09:41:00,54.0,49.0,26.31,SSW,196,5.0,7.0,84,-99.99,,,-99.99,,2013-03-05 17:41:00,
2013-03-05 09:52:00,54.0,49.0,26.31,SW,229,2.0,6.0,84,-99.99,,,-99.99,,2013-03-05 17:52:00,
2013-03-05 10:01:00,55.0,50.0,26.31,SW,233,2.0,5.0,83,-99.99,,,-99.99,,2013-03-05 18:01:00,
2013-03-05 10:11:00,55.0,50.0,26.28,SSW,210,2.0,5.0,82,-99.99,,,-99.99,,2013-03-05 18:11:00,
2013-03-05 10:21:00,55.0,49.0,26.28,SSW,209,2.0,5.0,81,-99.99,,,-99.99,,2013-03-05 18:21:00,
2013-03-05 10:31:00,56.0,50.0,26.28,SSW,198,2.0,4.0,81,-99.99,,,-99.99,,2013-03-05 18:31:00,
2013-03-05 10:41:00,56.0,50.0,26.28,West,259,4.0,5.0,81,-99.99,,,-99.99,,2013-03-05 18:41:00,
2013-03-05 10:52:00,56.0,50.0,26.28,WNW,294,3.0,5.0,81,-99.99,,,-99.99,,2013-03-05 18:52:00,
2013-03-05 11:01:00,56.0,50.0,26.28,WSW,247,3.0,6.0,81,-99.99,,,-99.99,,2013-03-05 19:01:00,
2013-03-05 11:11:00,56.0,50.0,26.28,West,277,3.0,6.0,80,-99.99,,,-99.99,,2013-03-05 19:11:00,
2013-03-05 11:21:00,56.0,50.0,26.28,NNE,15,2.0,5.0,81,-99.99,,,-99.99,,2013-03-05 19:21:00,
2013-03-05 11:31:00,56.0,50.0,26.28,WNW,285,3.0,5.0,80,-99.99,,,-99.99,,2013-03-05 19:31:00,
2013-03-05 11:41:00,56.0,50.0,26.28,WNW,294,2.0,5.0,81,-99.99,,,-99.99,,2013-03-05 19:41:00,
2013-03-05 11:51:00,56.0,50.0,26.28,WSW,242,2.0,4.0,80,-99.99,,,-99.99,,2013-03-05 19:51:00,
2013-03-05 12:01:00,56.0,50.0,26.28,SSW,212,3.0,5.0,80,-99.99,,,-99.99,,2013-03-05 20:01:00,
2013-03-05 12:11:00,56.0,50.0,26.28,SW,224,2.0,4.0,81,-99.99,,,-99.99,,2013-03-05 20:11:00,
2013-03-05 12:21:00,56.0,50.0,26.28,SW,221,3.0,5.0,80,-99.99,,,-99.99,,2013-03-05 20:21:00,
2013-03-05 12:32:00,56.0,50.0,26.28,SW,235,3.0,6.0,81,-99.99,,,-99.99,,2013-03-05 20:32:00,
2013-03-05 12:41:00,56.0,50.0,26.28,SW,225,2.0,5.0,81,-99.99,,,-99.99,,2013-03-05 20:41:00,
2013-03-05 12:52:00,56.0,50.0,26.28,SW,214,2.0,4.0,81,-99.99,,,-99.99,,2013-03-05 20:52:00,
2013-03-05 13:01:00,57.0,51.0,26.28,SW,215,2.0,5.0,80,-99.99,,,-99.99,,2013-03-05 21:01:00,
2013-03-05 13:11:00,57.0,51.0,26.28,SW,236,2.0,5.0,79,-99.99,,,-99.99,,2013-03-05 21:11:00,
2013-03-05 13:21:00,58.0,51.0,26.28,SE,142,2.0,4.0,78,-99.99,,,-99.99,,2013-03-05 21:21:00,
2013-03-05 13:31:00,58.0,50.0,26.26,SW,229,4.0,7.0,75,-99.99,,,-99.99,,2013-03-05 21:31:00,
2013-03-05 13:41:00,59.0,50.0,26.26,SW,221,5.0,10.0,73,-99.99,,,-99.99,,2013-03-05 21:41:00,
2013-03-05 13:52:00,59.0,50.0,26.28,SSW,212,4.0,7.0,73,-99.99,,,-99.99,,2013-03-05 21:52:00,
2013-03-05 14:01:00,59.0,50.0,26.28,SW,227,6.0,8.0,73,-99.99,,,-99.99,,2013-03-05 22:01:00,
2013-03-05 14:11:00,59.0,50.0,26.28,SSW,213,5.0,9.0,73,-99.99,,,-99.99,,2013-03-05 22:11:00,
2013-03-05 14:21:00,59.0,50.0,26.28,SW,225,6.0,11.0,73,-99.99,,,-99.99,,2013-03-05 22:21:00,
2013-03-05 14:31:00,59.0,50.0,26.28,SW,224,7.0,11.0,73,-99.99,,,-99.99,,2013-03-05 22:31:00,
2013-03-05 14:41:00,59.0,50.0,26.28,SW,231,6.0,9.0,73,-99.99,,,-99.99,,2013-03-05 22:41:00,
2013-03-05 14:52:00,60.0,51.0,26.26,SSW,211,6.0,11.0,71,-99.99,,,-99.99,,2013-03-05 22:52:00,
2013-03-05 15:01:00,59.0,50.0,26.28,SSW,212,6.0,10.0,73,-99.99,,,-99.99,,2013-03-05 23:01:00,
2013-03-05 15:11:00,59.0,50.0,26.28,SW,222,6.0,11.0,73,-99.99,,,-99.99,,2013-03-05 23:11:00,
2013-03-05 15:21:00,58.0,50.0,26.28,SW,228,7.0,10.0,74,-99.99,,,-99.99,,2013-03-05 23:21:00,
2013-03-05 15:32:00,58.0,50.0,26.28,SW,217,7.0,12.0,74,-99.99,,,-99.99,,2013-03-05 23:32:00,
2013-03-05 15:41:00,57.0,51.0,26.31,SSW,213,8.0,11.0,79,-99.99,,,-99.99,,2013-03-05 23:41:00,
2013-03-05 15:52:00,56.0,50.0,26.31,SW,215,7.0,11.0,81,-99.99,,,-99.99,,2013-03-05 23:52:00,
2013-03-05 16:01:00,56.0,50.0,26.31,SW,215,7.0,11.0,81,-99.99,,,-99.99,,2013-03-06 00:01:00,
2013-03-05 16:11:00,56.0,50.0,26.31,SW,220,7.0,11.0,81,-99.99,,,-99.99,,2013-03-06 00:11:00,
2013-03-05 16:21:00,56.0,50.0,26.31,SW,220,7.0,11.0,81,-99.99,,,-99.99,,2013-03-06 00:21:00,
2013-03-05 16:32:00,55.0,50.0,26.31,SSW,213,7.0,13.0,82,-99.99,,,-99.99,,2013-03-06 00:32:00,
2013-03-05 16:41:00,55.0,50.0,26.31,SSW,213,7.0,13.0,82,-99.99,,,-99.99,,2013-03-06 00:41:00,
2013-03-05 16:51:00,55.0,50.0,26.28,SW,219,5.0,9.0,82,-99.99,,,-99.99,,2013-03-06 00:51:00,
2013-03-05 17:01:00,55.0,49.0,26.28,SW,220,5.0,8.0,81,-99.99,,,-99.99,,2013-03-06 01:01:00,
2013-03-05 17:11:00,55.0,49.0,26.28,SSW,209,5.0,8.0,81,-99.99,,,-99.99,,2013-03-06 01:11:00,
2013-03-05 17:21:00,55.0,49.0,26.28,SSW,202,5.0,8.0,81,-99.99,,,-99.99,,2013-03-06 01:21:00,
2013-03-05 17:31:00,55.0,49.0,26.28,SSW,202,5.0,8.0,81,-99.99,,,-99.99,,2013-03-06 01:31:00,
2013-03-05 17:41:00,54.0,48.0,26.28,SSW,204,5.0,8.0,81,-99.99,,,-99.99,,2013-03-06 01:41:00,
2013-03-05 17:51:00,54.0,48.0,26.28,SSW,195,4.0,6.0,81,-99.99,,,-99.99,,2013-03-06 01:51:00,
2013-03-05 18:01:00,54.0,48.0,26.28,SSW,195,4.0,6.0,81,-99.99,,,-99.99,,2013-03-06 02:01:00,
2013-03-05 18:11:00,54.0,48.0,26.26,SSW,194,4.0,6.0,81,-99.99,,,-99.99,,2013-03-06 02:11:00,
2013-03-05 18:21:00,54.0,48.0,26.26,SSW,194,4.0,6.0,81,-99.99,,,-99.99,,2013-03-06 02:21:00,
2013-03-05 18:31:00,54.0,48.0,26.26,South,189,4.0,6.0,80,-99.99,,,-99.99,,2013-03-06 02:31:00,
2013-03-05 18:41:00,54.0,48.0,26.26,SSW,192,3.0,5.0,80,-99.99,,,-99.99,,2013-03-06 02:41:00,
2013-03-05 18:52:00,54.0,48.0,26.26,South,183,3.0,5.0,80,-99.99,,,-99.99,,2013-03-06 02:52:00,
2013-03-05 19:01:00,54.0,48.0,26.26,South,177,3.0,5.0,80,-99.99,,,-99.99,,2013-03-06 03:01:00,
2013-03-05 19:11:00,54.0,48.0,26.26,SSW,196,4.0,6.0,80,-99.99,,,-99.99,,2013-03-06 03:11:00,
2013-03-05 19:21:00,54.0,48.0,26.26,South,191,4.0,7.0,80,-99.99,,,-99.99,,2013-03-06 03:21:00,
2013-03-05 19:31:00,53.0,47.0,26.23,South,188,4.0,7.0,79,-99.99,,,-99.99,,2013-03-06 03:31:00,
2013-03-05 19:41:00,53.0,47.0,26.23,South,190,4.0,6.0,79,-99.99,,,-99.99,,2013-03-06 03:41:00,
2013-03-05 19:52:00,53.0,47.0,26.23,South,187,3.0,5.0,79,-99.99,,,-99.99,,2013-03-06 03:52:00,
2013-03-05 20:01:00,53.0,47.0,26.23,South,182,3.0,5.0,79,-99.99,,,-99.99,,2013-03-06 04:01:00,
2013-03-05 20:11:00,53.0,47.0,26.23,South,175,2.0,4.0,79,-99.99,,,-99.99,,2013-03-06 04:11:00,
2013-03-05 20:21:00,53.0,47.0,26.23,South,174,3.0,5.0,79,-99.99,,,-99.99,,2013-03-06 04:21:00,
2013-03-05 20:31:00,53.0,46.0,26.23,South,189,3.0,6.0,78,-99.99,,,-99.99,,2013-03-06 04:31:00,
2013-03-05 20:41:00,53.0,46.0,26.23,South,187,3.0,5.0,78,-99.99,,,-99.99,,2013-03-06 04:41:00,
2013-03-05 20:51:00,53.0,46.0,26.23,South,183,2.0,4.0,78,-99.99,,,-99.99,,2013-03-06 04:51:00,
2013-03-05 21:01:00,53.0,46.0,26.23,South,179,2.0,3.0,78,-99.99,,,-99.99,,2013-03-06 05:01:00,
2013-03-05 21:11:00,53.0,47.0,26.23,SE,143,2.0,3.0,79,-99.99,,,-99.99,,2013-03-06 05:11:00,
2013-03-05 21:22:00,53.0,47.0,26.23,SSE,159,2.0,4.0,80,-99.99,,,-99.99,,2013-03-06 05:22:00,
2013-03-05 21:32:00,53.0,47.0,26.26,SE,145,1.0,3.0,81,-99.99,,,-99.99,,2013-03-06 05:32:00,
2013-03-05 21:42:00,53.0,48.0,26.26,SSE,154,2.0,4.0,82,-99.99,,,-99.99,,2013-03-06 05:42:00,
2013-03-05 21:52:00,52.0,47.0,26.28,ESE,102,3.0,5.0,84,-99.99,,,-99.99,,2013-03-06 05:52:00,
2013-03-05 22:01:00,52.0,47.0,26.28,ESE,102,3.0,5.0,84,-99.99,,,-99.99,,2013-03-06 06:01:00,
2013-03-05 22:11:00,52.0,48.0,26.28,ENE,76,2.0,3.0,85,-99.99,,,-99.99,,2013-03-06 06:11:00,
2013-03-05 22:22:00,52.0,48.0,26.28,NE,46,2.0,2.0,85,-99.99,,,-99.99,,2013-03-06 06:22:00,
2013-03-05 22:31:00,52.0,48.0,26.28,NNE,31,0.0,1.0,86,-99.99,,,-99.99,,2013-03-06 06:31:00,
2013-03-05 22:41:00,52.0,48.0,26.28,NNE,31,0.0,1.0,86,-99.99,,,-99.99,,2013-03-06 06:41:00,
2013-03-05 22:52:00,52.0,48.0,26.31,NE,51,3.0,4.0,87,-99.99,,,-99.99,,2013-03-06 06:52:00,
2013-03-05 23:01:00,52.0,48.0,26.31,NE,51,3.0,4.0,87,-99.99,,,-99.99,,2013-03-06 07:01:00,
2013-03-05 23:11:00,52.0,48.0,26.31,NNE,26,2.0,4.0,87,-99.99,,,-99.99,,2013-03-06 07:11:00,
2013-03-05 23:22:00,52.0,49.0,26.31,ENE,63,3.0,5.0,88,-99.99,,,-99.99,,2013-03-06 07:22:00,
2013-03-05 23:31:00,52.0,49.0,26.31,NE,44,3.0,4.0,89,-99.99,,,-99.99,,2013-03-06 07:31:00,
2013-03-05 23:42:00,52.0,49.0,26.31,NE,48,2.0,3.0,89,-99.99,,,-99.99,,2013-03-06 07:42:00,
2013-03-05 23:52:00,52.0,49.0,26.34,NNE,23,2.0,4.0,89,-99.99,,,-99.99,,2013-03-06 07:52:00,